CAPE
1858 1866 1847 1996 2198 2072 2120 2191 2284 2320 2360 2410 2462 2420 2360 2378 2379 2343 2268 2100 1955 2422 2516 1890 1761 1552 1920 1690 1920 1817 1788 1756 1735 1620 1632 1478 1366 1195 1085 1141 1206 1213 983 755 514 370 537 575 663 819 955 1438 1318 1458 1309 1140 932 813 809 842 708 739
2132 2188 2244 2066 2104 2250 2140 2209 2004 2349 1952 2031 2424 2387 2246 2007 2027 1984 2120 2251 2446 2343 1985 1915 1726 1426 1804 1763 1733 1843 1787 1672 1599 1613 1616 1546 1288 1110 1103 1261 1249 1188 650 476 364 505 465 374 406 644 887 1279 1570 1460 1352 1162 936 781 790 864 688 761
2044 2112 1823 2391 2094 2192 2415 2264 1709 1600 2384 1854 1982 2141 1907 1931 1966 2237 2252 2138 2387 2311 1795 1688 1906 1815 1638 1840 1894 1895 1778 1661 1566 1570 1550 1683 1581 1414 1363 1486 1419 1037 649 338 1066 689 378 322 344 360 777 1319 1582 1450 1411 1211 992 928 748 817 705 635
1436 1949 1654 1974 1690 1552 1564 1375 1603 1643 1796 2190 2060 1948 1948 1984 1942 2101 2002 1835 1840 1831 1818 1863 1861 1929 1667 1777 1822 1876 1870 1808 1691 1653 1722 1468 1607 1567 1309 1220 1180 957 916 873 945 760 320 310 262 522 1036 1355 1430 1448 1400 1278 964 958 844 727 598 620
1916 2012 1700 1637 1494 1518 1668 1798 1791 1544 1694 1729 2030 2017 1969 2064 2040 1997 1909 1870 1783 1794 1711 1808 2335 2258 1701 1679 2028 2014 1810 1271 1130 1373 1482 1201 1076 1268 1184 1042 1077 923 871 888 876 940 594 314 267 354 641 1329 1412 1420 1348 1319 1190 1096 926 898 784 603
1708 1819 1763 1529 1590 1567 1692 1767 1899 1809 1800 2089 1995 2090 2009 2027 2016 1932 1977 1954 1858 1759 1723 1854 2385 2220 1938 1893 1873 1803 1693 1418 1364 1370 1322 994 978 924 854 879 1008 847 868 760 923 930 716 538 267 353 354 956 1408 1532 1297 1162 1160 1289 1090 933 788 674
1453 1910 1516 1923 1610 1560 1616 1877 1847 1797 1968 1880 2077 1895 1931 2122 2066 2018 2021 2017 1877 1794 1807 1830 2144 2186 1942 1850 1633 1541 1380 1356 1413 1234 1300 906 996 873 897 819 818 869 948 968 776 722 629 587 609 452 369 437 1006 1345 1433 1237 1279 1299 1130 986 771 858
1698 1635 1859 1784 1909 1779 1816 2082 1848 1803 2167 1942 1946 1875 1972 2048 2021 2131 2070 2131 2042 2047 1833 1517 2156 2050 1920 1947 1904 1454 1254 1311 1412 1331 1204 1122 845 865 912 1106 1161 1014 812 669 446 720 689 595 668 632 541 520 576 1048 1414 1314 1341 1366 1196 1112 830 1082
1723 1670 1823 1936 1811 1844 1775 1837 1868 1931 1955 2093 2074 2032 2020 1840 1962 1991 2052 2160 2036 2045 2091 2057 2031 1993 1993 2053 1987 1776 1623 1476 1372 1464 1319 1390 934 1214 1212 1151 1157 904 857 721 802 887 820 629 720 786 650 582 603 735 1210 1410 1459 1362 1202 1166 947 1169
1680 1662 1823 1968 1844 1802 1845 1742 1800 1933 2014 2242 2153 2080 2046 1930 1903 1889 2044 2091 2185 2156 1997 1956 1952 1846 1959 1918 1909 1876 1864 1740 1507 1375 1203 1433 1643 1469 1525 1259 1224 1038 603 811 839 945 980 590 484 631 639 631 692 631 924 1289 1316 1273 1280 1332 1209 1261
1847 2006 1896 1811 1917 1867 1994 1804 2017 1983 1909 2280 2212 2156 2035 1975 1840 1944 2113 1968 1967 1931 1908 1961 1850 1758 1825 1820 1980 2021 1998 1636 1662 1593 1612 1696 1507 1310 1431 1515 1483 1117 862 913 982 1001 801 656 597 558 648 495 654 796 962 1219 1216 1311 1258 1369 1235 1432
1840 2024 2072 1875 1867 1768 1826 1936 1972 1808 1931 2330 2194 2116 1989 1748 1809 1812 1711 1657 1591 1518 1509 1763 1771 1584 1425 1484 1632 1838 1704 1741 1735 1530 1550 1575 1597 1460 1533 1384 1488 1679 1681 1326 1105 1018 949 819 770 626 652 652 736 963 1038 1271 1308 1452 1346 1465 1374 1442
1906 2094 2042 1941 1559 1548 1810 1829 1803 1790 2055 2251 2161 2030 1784 1647 1649 1697 1730 1744 1631 1572 1500 1341 1248 1022 1036 990 1320 1420 1412 1566 1410 1360 1347 1433 1496 1591 1653 1659 1540 1520 1404 1296 1203 1119 828 1095 1052 1012 990 790 947 866 896 1012 1256 1272 1398 1326 1243 1426
2145 1992 2050 1864 1902 1725 1794 1886 1970 1876 1939 2205 1981 2004 1848 1613 1503 1530 1542 1495 1191 1103 1216 1487 1466 948 994 887 794 1123 1183 1120 1074 994 1046 1267 1262 1388 1727 1644 1394 1269 1139 1142 1238 1209 1119 1034 1044 987 1134 921 1061 1207 1004 903 1301 1398 1389 1272 1348 1375
2179 2187 2071 2059 1949 1946 1927 1917 2005 2025 1971 2007 1898 1837 1697 1613 1534 1442 1319 1204 1188 1179 1095 1114 1082 926 970 1150 1175 1108 1143 1111 947 1113 1381 1320 1352 1286 1740 1606 1396 1166 1206 1427 1356 962 1001 989 1082 1092 1312 1283 1030 972 1162 1178 1201 1201 1134 1350 1380 1379
2281 2269 2282 2217 2226 2141 1928 1973 1990 2029 2080 2027 1928 1875 1808 1725 1574 1316 1167 1105 1046 1004 846 944 820 614 997 1002 1123 1122 1101 988 852 1356 1537 1477 1555 1597 1684 1702 1486 1398 1385 1428 1317 1194 1041 1090 914 827 1000 1217 1258 1290 1339 1331 1224 1097 1111 1095 1029 1288
2423 2372 2277 2141 2026 2128 2266 2289 2100 2187 1945 1909 1898 1840 1732 1609 1500 1355 1247 1110 1063 1014 762 847 784 794 779 1154 1137 1064 1053 875 1078 1283 1516 1418 1513 1496 1844 1716 1520 1368 1344 1448 1153 1016 913 786 730 784 917 1086 1074 1210 1244 1433 1151 1194 1085 1303 1159 1138
2532 2438 2188 2166 2260 2460 2470 2261 2100 2030 1986 2019 2008 1810 1484 1315 1132 1084 1066 1020 1004 940 906 740 835 826 1088 935 1023 1129 978 785 782 1211 1256 1402 1432 1232 1436 1808 1651 1434 1297 1299 1163 828 746 719 776 865 774 949 983 1036 957 1150 1144 1096 1308 1104 1090 1131
2383 2305 2238 2264 2474 2431 2264 2188 2090 2018 2055 1829 1439 1394 1201 1088 1024 947 942 1017 1029 934 866 841 870 1016 914 860 991 1163 1082 888 874 1190 997 1042 1274 1316 1306 1510 1608 1046 1237 1401 1251 855 762 826 915 816 595 523 786 1025 1061 855 832 951 1032 1116 1116 951
2413 2497 2512 2555 2396 2228 2039 1922 1792 1864 1592 1249 1186 1008 953 961 885 979 1001 1068 1012 919 898 877 852 919 948 1065 1071 1100 1088 952 999 986 1171 1190 1186 1220 1346 1454 1309 1037 1011 785 707 719 701 710 923 522 435 443 580 780 851 750 858 710 621 836 966 930
2544 2589 2588 2554 2432 2121 1854 1696 1630 1646 1818 1318 1094 925 936 921 987 1015 1056 989 945 852 912 819 766 776 848 926 874 955 980 990 1143 1166 1102 1118 1030 1032 1175 1316 1161 1123 1135 969 724 724 520 804 635 399 350 386 563 572 602 517 847 735 593 550 660 872
2567 2631 2586 2451 2145 1818 1762 1788 1860 1756 1611 1342 1293 1287 1201 1100 983 801 760 759 960 1019 985 1026 721 717 869 972 1033 1002 1035 1143 1098 1098 1013 896 870 767 856 860 850 756 862 1121 728 603 575 849 574 726 576 448 470 516 483 674 630 556 550 563 752 854
2639 2468 2358 2202 1843 1812 1581 1584 1580 1373 1406 1046 861 977 1068 968 792 725 698 750 932 1271 990 1037 895 751 792 728 834 808 753 772 830 762 750 858 835 860 861 951 1085 940 595 841 649 574 536 668 843 611 716 596 576 654 528 740 678 431 337 842 830 512
2570 2475 2286 2055 1810 1618 1528 1493 1199 1011 859 1057 882 785 775 730 628 476 299 275 302 836 1116 1144 753 776 788 763 810 871 846 808 780 832 829 820 730 714 802 911 1031 1073 935 625 587 563 409 492 532 524 515 832 624 538 612 472 577 476 344 465 529 458
2304 2329 2181 1991 1707 1469 1382 1343 967 718 679 685 750 787 623 527 398 116 25 133 167 433 1228 1116 1068 954 929 762 799 892 846 675 727 704 764 685 742 703 774 868 989 924 1084 1177 687 573 566 369 551 897 944 282 159 267 346 522 398 366 414 468 424 408
2037 2150 2074 1846 1576 1328 1255 1115 898 854 835 713 580 675 647 330 160 186 59 0 3 186 1031 1308 1179 1156 1128 972 1013 860 734 786 794 668 738 776 590 648 629 749 799 728 737 985 928 544 576 297 324 606 758 1385 1366 908 337 476 519 14 322 386 332 36
1879 2029 2002 1782 1449 1215 1274 1364 1597 1666 1628 1350 970 434 245 294 302 19 0 0 4 37 438 1194 1260 1228 1179 1085 1092 838 757 834 754 643 657 701 661 781 660 725 680 650 1036 742 616 765 841 425 270 350 463 728 683 685 937 332 398 384 188 3 0 0
1673 1822 1878 1725 1312 1246 1380 1472 1624 1461 1306 1168 1054 392 262 76 1 0 0 0 0 2 132 508 930 864 1036 1088 1070 896 709 632 686 598 674 662 573 643 766 697 660 902 728 758 807 566 692 667 820 486 487 512 586 563 685 764 508 496 15 18 24 14
1396 1466 1593 1538 1182 1127 1267 1351 1360 1147 834 498 478 277 77 0 0 0 0 0 0 0 20 19 482 334 352 618 802 1019 910 852 696 750 718 697 699 666 806 763 670 667 704 762 750 538 659 572 972 716 573 488 578 584 640 759 594 347 8 14 0 0
1277 1251 1355 1265 1054 1026 948 1017 1091 1062 874 466 357 140 25 0 0 0 0 0 9 84 78 93 6 2 72 125 472 770 986 972 694 643 602 652 455 480 547 634 668 746 616 760 635 649 758 797 865 944 901 864 868 585 677 625 612 226 71 20 0 0
1265 1188 1192 1078 1002 907 782 924 1031 978 825 566 463 224 13 0 0 0 0 0 14 16 39 41 23 8 13 72 283 328 519 510 496 362 243 354 580 471 339 368 304 415 521 552 473 324 165 270 277 309 448 800 822 738 538 548 296 188 7 0 0 0
1212 1117 964 836 748 586 493 484 596 730 765 716 591 388 244 35 0 0 0 0 0 2 1 3 19 57 11 2 88 87 12 37 132 228 208 150 118 146 51 17 48 76 21 76 228 334 328 251 349 347 354 187 36 52 95 65 26 33 6 0 0 0
1178 1052 861 703 624 430 217 31 17 447 618 681 733 653 431 143 4 0 0 0 0 6 7 28 50 51 0 0 0 9 13 22 11 5 2 5 4 0 0 0 0 1 10 74 150 167 128 208 124 18 0 0 0 0 0 0 0 0 0 0 0 0
1079 931 842 629 530 276 34 5 153 423 521 365 444 450 249 34 0 3 0 0 0 13 58 131 34 35 0 0 0 0 0 0 0 0 0 0 0 0 0 0 0 0 0 0 0 0 0 0 0 0 0 0 0 0 0 0 0 0 0 0 0 0
1086 1015 878 658 440 218 204 176 213 242 398 400 308 270 188 98 0 0 0 0 0 0 10 0 0 0 0 0 0 0 0 0 0 0 0 0 0 0 0 0 0 0 0 0 0 0 0 0 0 0 0 0 0 0 0 0 0 0 0 0 0 0
860 862 837 782 497 396 413 364 151 192 298 25 176 32 10 13 44 9 4 18 0 0 0 0 0 0 0 0 0 0 0 0 0 0 0 0 0 0 0 0 0 0 0 0 0 0 0 0 0 0 0 0 0 0 0 0 0 0 0 0 0 0
876 925 1018 807 454 525 610 526 327 356 197 114 74 181 118 16 13 0 4 0 0 0 0 0 0 0 0 0 0 0 0 0 0 0 0 0 0 0 0 0 0 0 0 0 0 0 0 0 0 0 0 0 0 0 0 0 0 0 0 0 0 0
Wind_Speed
24 24 24 24 21 21 21 26 26 26 24 21 24 26 27 29 31 33 32 32 31 29 29 29 29 28 30 28 27 27 26 26 26 26 26 26 27 26 27 27 27 27 28 27 26 26 27 28 29 29 27 25 25 21 22 21 20 20 19 20 20 21
24 22 22 21 20 18 19 21 23 25 23 23 24 25 25 28 30 31 34 30 29 29 29 28 28 29 27 28 26 26 25 25 25 25 26 26 26 25 26 27 27 28 28 27 24 23 23 26 30 30 29 30 24 24 24 22 21 20 20 20 20 25
21 19 20 19 19 20 19 18 19 22 22 24 23 24 26 29 29 31 30 30 29 29 28 28 28 27 26 26 26 25 25 25 24 25 25 26 26 25 25 27 29 29 26 24 22 23 23 25 27 29 29 26 26 25 25 23 22 21 21 22 21 26
18 18 18 19 20 19 18 17 17 19 21 20 21 24 27 27 28 29 29 29 28 29 28 27 29 30 28 25 25 25 25 25 25 25 25 24 24 25 26 28 29 26 22 21 22 21 22 24 26 27 28 27 26 26 25 23 22 22 22 23 23 26
16 16 17 17 19 16 18 17 18 18 20 21 23 25 24 24 26 28 28 28 28 29 28 27 27 25 23 23 23 23 22 22 22 23 22 22 21 23 21 23 23 22 21 20 20 21 21 23 25 26 27 27 27 26 24 24 23 22 23 23 25 24
17 15 15 16 17 19 20 18 18 19 21 22 22 21 21 23 25 26 26 28 29 28 28 27 25 24 23 22 21 21 21 21 21 21 20 21 21 21 22 22 22 20 19 18 18 20 21 22 24 25 26 27 26 25 24 24 24 23 24 24 26 24
16 13 14 17 19 19 18 19 19 20 21 19 19 20 21 23 24 24 25 27 28 28 27 26 24 23 22 21 21 21 21 20 19 19 19 20 21 21 21 22 21 20 18 16 17 19 20 21 23 24 25 26 26 25 25 24 24 24 24 24 26 25
14 14 15 17 18 18 17 19 19 19 17 17 17 19 21 22 23 23 24 25 26 26 25 24 23 22 22 21 21 21 21 20 18 17 18 19 19 19 20 21 20 19 18 18 18 19 20 21 21 22 23 25 25 25 24 23 24 24 24 24 25 25
13 14 15 15 15 17 17 17 16 14 14 14 16 18 20 21 22 22 22 23 23 22 22 22 21 20 20 20 21 20 19 18 17 17 17 18 17 18 19 20 20 20 20 19 19 20 20 20 20 21 22 23 24 24 23 22 23 24 24 24 23 25
12 13 14 13 13 14 13 11 10 11 12 13 14 16 19 19 20 20 20 19 19 18 19 19 19 18 18 19 19 18 17 16 15 16 16 17 17 16 17 18 19 19 19 19 19 20 19 19 19 21 21 22 22 23 23 22 22 23 24 23 23 24
11 12 12 10 8 6 6 6 8 10 11 12 16 16 18 17 17 18 18 16 16 17 17 17 17 17 17 17 16 15 14 15 15 17 17 17 17 16 16 17 17 17 18 18 18 19 18 18 19 21 21 21 22 22 23 23 23 23 23 23 23 23
11 9 6 5 5 5 5 6 7 9 10 12 15 16 16 15 16 17 18 15 15 14 14 14 17 19 17 17 15 12 13 15 16 17 16 16 16 16 16 17 17 17 18 17 17 19 19 19 20 20 21 21 21 21 21 22 22 23 23 24 24 25
8 6 7 7 7 7 7 8 9 10 12 13 14 15 16 17 17 20 15 9 12 11 12 14 17 18 21 14 12 11 14 15 16 16 16 15 15 16 17 17 17 16 16 16 17 20 20 20 20 20 20 21 20 21 22 21 21 22 23 24 25 25
7 8 10 10 9 9 10 11 11 12 12 13 13 14 16 18 15 17 11 7 10 11 8 11 11 16 22 16 10 12 13 13 14 16 17 16 16 17 18 18 18 17 18 17 19 20 19 19 19 19 21 22 22 22 21 20 20 22 23 23 25 25
10 11 13 12 10 10 12 13 13 12 12 12 13 12 16 17 13 13 14 14 9 10 12 12 9 14 19 12 10 11 11 13 15 16 16 17 18 19 19 19 19 18 19 20 21 22 21 19 18 20 21 22 22 21 20 19 20 21 22 23 23 24
15 16 16 14 10 11 14 14 13 11 10 11 11 11 13 15 13 13 11 14 15 12 13 12 12 17 14 12 12 12 13 14 15 17 18 18 18 20 21 21 20 19 19 20 21 22 20 20 19 20 21 22 21 20 19 20 21 21 21 21 22 24
17 19 17 15 14 16 18 17 13 10 10 11 11 11 12 11 12 12 10 8 9 10 12 11 15 19 14 12 13 13 13 15 16 18 19 19 19 20 21 22 22 21 20 21 22 22 20 18 20 21 21 23 23 23 22 22 22 21 22 23 23 23
14 17 18 18 19 21 21 18 14 12 12 12 13 12 11 11 11 10 10 10 10 10 11 11 14 17 13 13 13 13 15 17 17 17 18 18 19 19 19 21 23 23 21 21 22 22 20 18 20 20 21 23 23 23 22 22 21 22 22 23 22 23
12 15 18 20 21 22 22 19 16 14 13 13 13 13 12 13 12 12 11 10 10 10 11 12 13 17 14 12 13 14 16 18 18 18 18 17 18 19 19 19 22 23 23 22 23 22 20 18 21 21 20 21 21 21 19 18 17 19 20 22 22 23
11 13 15 17 18 19 19 17 15 13 12 12 13 14 14 14 13 12 11 10 11 11 13 14 15 16 15 13 14 15 16 18 18 17 17 16 18 19 19 19 21 22 24 24 24 23 20 19 21 22 21 20 21 21 20 18 17 18 20 21 21 22
12 14 14 15 16 18 18 17 14 12 11 12 13 15 15 14 14 13 11 11 12 12 13 15 16 14 15 15 15 17 17 20 17 16 17 18 19 21 21 20 22 22 23 24 24 23 21 19 22 22 21 21 21 21 21 20 19 20 22 22 22 21
13 14 14 15 17 18 17 16 15 14 13 14 14 15 15 15 15 14 13 12 12 12 13 14 16 15 16 14 14 16 17 20 19 17 20 20 21 22 22 21 22 24 22 23 25 24 23 22 21 20 21 21 20 20 21 21 21 22 22 22 22 23
14 14 14 15 16 17 17 17 15 16 15 16 14 14 16 17 17 15 14 13 12 12 13 14 15 15 15 14 14 15 17 19 20 21 20 21 20 21 21 21 21 23 25 25 28 26 24 19 22 20 20 19 19 17 19 20 22 23 22 22 22 24
16 15 14 15 16 20 20 18 18 18 16 16 17 17 19 20 20 17 15 13 12 11 12 14 14 14 14 15 16 16 17 18 19 20 20 20 20 20 21 21 22 23 25 26 26 26 24 22 21 23 20 17 20 16 17 18 19 22 21 22 23 23
15 14 15 16 18 21 21 20 20 20 20 20 19 18 19 20 20 18 nan 13 13 11 10 13 15 15 15 15 16 17 18 20 20 20 20 20 20 21 21 20 21 23 23 24 27 28 25 25 22 18 20 22 21 18 19 21 19 22 20 22 24 23
13 14 15 16 19 19 19 20 20 20 20 19 19 18 19 20 19 18 nan nan nan 13 11 13 16 18 17 16 16 17 18 19 20 20 20 20 20 21 21 21 21 21 24 26 29 29 27 26 23 22 20 19 20 20 22 23 19 nan 24 24 24 nan
13 13 14 16 18 19 19 17 17 18 19 20 20 17 16 16 18 nan nan nan nan nan 16 18 20 21 21 19 18 17 18 19 20 20 20 20 21 20 21 21 22 22 23 26 26 28 27 29 28 25 24 23 23 22 25 26 24 28 28 nan nan nan
12 13 14 16 19 18 19 17 17 18 20 20 20 21 19 nan nan nan nan nan nan nan 21 23 24 23 22 21 20 19 18 19 20 21 21 22 23 23 23 24 23 24 25 25 26 27 27 28 27 28 27 27 26 26 25 25 26 25 nan nan nan nan
12 14 16 18 19 18 18 18 18 20 22 22 24 23 nan nan nan nan nan nan nan nan nan nan 27 26 23 21 20 20 19 20 21 22 22 24 24 24 25 25 24 24 24 26 25 27 27 27 27 29 28 28 27 26 25 24 24 22 nan nan nan nan
13 15 17 18 18 19 18 19 20 22 27 27 26 25 nan nan nan nan nan nan nan nan nan nan nan nan nan 22 20 19 19 20 22 23 24 25 26 26 25 25 25 26 26 26 26 26 26 27 28 28 26 26 26 26 25 25 24 25 nan nan nan nan
16 17 18 19 19 20 21 21 22 26 30 30 28 29 nan nan nan nan nan nan nan nan nan nan nan nan nan nan 19 18 19 20 22 24 24 25 26 27 27 27 27 27 27 27 28 29 30 29 29 28 26 23 24 23 23 25 26 26 nan nan nan nan
19 19 20 22 23 25 25 26 26 27 29 28 29 28 29 nan nan nan nan nan nan nan nan nan nan nan nan nan nan nan nan nan 22 24 25 25 26 28 nan nan nan nan nan nan 30 30 30 29 28 27 26 25 nan nan nan nan nan nan nan nan nan nan
22 23 25 28 29 30 30 nan nan 27 26 25 26 28 29 29 nan nan nan nan nan nan nan nan nan nan nan nan nan nan nan nan nan nan nan nan nan nan nan nan nan nan nan nan 29 30 29 29 28 nan nan nan nan nan nan nan nan nan nan nan nan nan
27 31 33 34 34 34 nan nan 25 22 21 22 25 26 27 nan nan nan nan nan nan nan nan 22 nan nan nan nan nan nan nan nan nan nan nan nan nan nan nan nan nan nan nan nan nan nan nan nan nan nan nan nan nan nan nan nan nan nan nan nan nan nan
36 37 34 31 30 30 27 24 22 21 21 21 22 23 25 nan nan nan nan nan nan nan nan nan nan nan nan nan nan nan nan nan nan nan nan nan nan nan nan nan nan nan nan nan nan nan nan nan nan nan nan nan nan nan nan nan nan nan nan nan nan nan
37 32 27 24 24 24 23 20 25 26 24 nan 24 nan nan nan nan nan nan nan nan nan nan nan nan nan nan nan nan nan nan nan nan nan nan nan nan nan nan nan nan nan nan nan nan nan nan nan nan nan nan nan nan nan nan nan nan nan nan nan nan nan
33 24 20 20 24 25 22 23 25 25 27 28 nan 25 24 nan nan nan nan nan nan nan nan nan nan nan nan nan nan nan nan nan nan nan nan nan nan nan nan nan nan nan nan nan nan nan nan nan nan nan nan nan nan nan nan nan nan nan nan nan nan nan
Wind_Direction
298 292 279 274 279 301 300 288 279 276 274 268 265 271 274 280 283 282 279 275 277 279 280 285 291 291 294 293 291 292 290 286 282 279 276 274 271 269 265 260 255 247 242 240 238 233 229 228 232 234 238 249 260 253 250 250 251 250 248 253 259 259
295 291 282 277 278 286 293 286 278 271 268 271 273 277 283 289 290 286 280 279 278 279 282 285 288 291 291 295 294 290 288 285 282 279 275 273 270 268 267 264 260 251 240 236 235 233 233 235 236 236 242 247 252 249 249 250 249 247 246 246 249 253
293 295 293 283 279 276 275 271 274 273 269 274 275 279 288 294 291 285 281 279 278 279 282 285 289 289 291 289 289 288 286 284 282 280 276 272 270 267 266 264 260 254 244 235 233 233 233 234 239 242 247 250 248 247 249 250 249 246 245 242 243 248
296 301 291 283 274 267 273 270 268 271 266 266 271 280 290 291 287 285 281 280 280 282 284 287 289 294 293 292 289 288 284 282 281 276 274 273 271 266 263 261 256 254 248 236 231 231 234 234 236 240 242 246 247 248 250 251 250 248 244 245 241 247
291 289 289 280 277 277 276 273 269 267 265 266 271 280 285 285 284 284 283 281 282 283 285 287 288 290 289 288 287 284 282 279 275 273 270 267 264 261 261 259 258 255 247 240 233 229 229 234 235 238 241 243 246 248 249 249 247 247 247 244 243 242
288 290 283 276 272 270 273 270 266 261 266 267 272 279 280 279 280 282 282 283 283 285 287 287 288 288 287 286 285 281 276 276 276 272 272 269 264 258 255 255 255 255 251 244 236 229 226 228 235 236 239 241 243 244 246 246 246 246 245 243 246 242
280 278 284 273 266 263 262 260 260 263 262 267 269 277 276 276 278 281 283 283 285 287 288 288 287 287 287 285 282 279 278 277 274 270 267 267 265 260 255 254 253 252 251 246 240 235 228 228 229 236 238 240 240 241 241 243 245 245 246 245 247 245
281 276 268 263 263 256 256 255 257 262 265 269 274 275 275 275 278 280 282 282 286 288 289 290 289 290 288 284 281 279 278 276 271 264 262 260 262 259 256 255 254 253 250 245 243 238 232 228 231 231 237 240 240 239 240 241 243 244 246 248 250 252
277 278 266 264 262 259 259 259 261 268 273 277 275 273 275 277 279 281 282 285 288 290 289 289 292 290 286 283 279 279 279 274 270 264 262 261 257 253 251 251 251 250 249 245 243 238 231 229 230 233 234 238 238 238 239 240 242 245 246 249 251 255
271 266 263 260 258 257 259 265 271 273 271 278 276 273 279 280 283 284 284 286 286 287 288 289 290 285 283 280 280 281 278 274 271 267 264 261 256 249 247 249 249 249 248 245 242 237 231 232 232 230 229 231 235 236 237 238 241 244 248 250 253 257
274 274 262 265 266 272 276 284 276 276 278 278 276 279 283 285 285 282 278 281 283 284 286 289 287 284 274 274 273 276 275 273 269 265 260 258 256 250 246 244 245 246 245 242 240 238 236 235 232 232 228 227 228 232 235 237 240 244 248 251 254 256
283 285 287 311 317 319 314 300 295 294 292 282 281 281 284 286 284 277 274 279 282 286 288 284 271 263 259 268 277 280 273 264 260 259 256 255 253 246 240 239 240 241 240 239 240 239 238 237 233 232 231 230 228 230 233 236 238 242 245 249 251 253
283 306 328 338 329 321 322 318 314 309 299 289 290 288 290 287 283 271 268 283 272 267 268 263 272 280 268 258 268 279 263 259 262 263 259 253 249 245 240 237 239 239 243 244 242 245 244 239 237 233 233 233 228 227 229 232 234 239 242 245 248 252
284 312 317 319 321 325 331 322 313 307 303 296 300 298 294 285 291 284 300 314 287 282 269 269 276 278 276 287 302 272 266 268 264 264 262 259 256 252 247 242 239 240 239 242 242 241 243 241 236 237 237 237 233 233 235 236 237 240 241 243 247 251
289 292 295 304 316 324 328 318 310 308 308 305 302 306 296 298 301 301 310 303 303 302 293 281 290 276 281 293 290 282 280 267 261 261 263 260 259 258 251 247 243 242 241 241 243 239 239 241 235 237 242 242 241 241 242 242 242 243 246 246 248 252
300 296 292 290 299 311 316 312 308 311 311 310 306 306 298 298 303 303 304 307 314 315 308 310 287 268 280 296 290 282 272 265 261 261 262 262 261 257 252 248 245 244 246 246 248 248 247 245 241 239 238 243 244 242 243 243 242 245 248 251 252 253
311 304 294 290 289 296 299 300 302 308 303 292 287 284 285 287 296 303 309 303 296 301 304 309 298 292 301 304 291 280 270 267 265 263 263 265 262 254 249 247 245 243 246 253 254 255 257 254 249 245 248 249 242 238 237 238 241 245 249 250 249 252
308 298 282 273 278 284 289 290 288 286 284 280 278 281 283 288 290 291 294 296 297 297 293 292 288 287 292 294 286 279 274 272 270 267 265 263 260 255 248 245 246 245 250 259 264 267 267 264 260 255 254 250 247 243 240 240 242 243 245 248 246 247
311 294 278 275 278 280 283 281 275 276 279 283 287 287 291 290 290 291 291 294 294 287 284 284 284 290 288 282 279 274 272 273 273 271 270 266 263 259 253 249 250 253 253 256 265 272 274 269 265 257 254 248 249 247 245 242 241 244 244 243 244 245
306 296 287 282 282 282 283 283 281 279 285 291 292 291 290 288 288 287 286 286 280 275 268 264 266 271 279 276 267 269 269 269 271 274 275 273 267 264 261 258 255 259 265 266 268 273 273 270 261 260 252 251 252 249 246 246 245 244 245 246 245 245
299 298 295 292 290 290 291 288 289 299 296 297 296 291 287 285 284 279 276 275 272 269 269 271 270 276 274 271 270 269 271 269 266 272 273 270 267 265 263 260 257 256 266 272 273 276 279 272 272 267 263 262 257 252 251 252 248 245 244 245 250 252
295 299 300 301 297 297 299 299 299 303 299 299 297 293 288 284 280 274 271 267 264 263 263 264 269 267 271 271 268 269 271 274 276 273 270 268 266 264 266 266 263 260 262 272 274 280 279 275 275 272 276 270 261 258 254 252 250 246 242 247 251 257
293 299 298 298 299 295 294 286 290 297 302 298 286 280 280 278 275 272 265 264 264 261 263 261 267 270 274 270 271 269 268 268 268 267 267 267 266 266 265 268 268 265 269 265 266 265 275 266 278 281 271 273 272 272 261 258 258 250 246 249 253 258
285 286 285 296 290 280 282 281 282 291 290 290 293 286 281 278 276 275 267 256 256 261 271 270 270 276 278 280 277 270 268 266 266 266 265 266 265 265 264 265 266 268 271 274 269 260 263 273 275 279 283 276 273 273 277 270 262 259 256 257 258 261
283 284 280 286 287 286 285 284 286 285 285 283 284 288 286 278 275 275 nan 261 251 255 278 287 285 282 282 283 280 273 268 267 268 269 267 267 267 264 264 263 266 268 270 271 271 266 265 270 272 262 278 283 280 277 275 278 277 265 260 263 259 260
273 274 281 290 291 290 292 295 298 298 298 294 294 298 295 286 278 275 nan nan nan 245 261 287 297 297 290 286 283 281 276 271 268 269 268 267 266 265 266 266 265 266 267 263 269 272 274 272 276 274 268 266 269 275 284 285 286 nan 270 266 265 nan
278 278 281 286 291 286 289 293 299 298 295 294 293 287 285 278 270 nan nan nan nan nan 260 280 295 301 296 287 282 280 278 275 270 268 268 268 269 271 269 266 266 264 264 266 271 272 277 278 278 273 273 272 270 267 272 284 280 282 280 nan nan nan
274 276 278 279 284 282 285 284 282 276 275 280 281 284 288 nan nan nan nan nan nan nan 273 279 290 296 295 287 280 279 278 278 275 269 268 266 265 264 263 264 266 262 264 267 271 274 277 281 282 279 279 276 271 272 273 269 279 284 nan nan nan nan
270 270 270 275 276 276 271 277 276 275 273 268 271 274 nan nan nan nan nan nan nan nan nan nan 284 288 289 284 277 274 278 279 275 270 266 264 263 262 262 263 265 266 268 268 268 271 275 280 280 281 282 281 280 278 275 274 276 279 nan nan nan nan
256 253 257 264 266 268 269 270 271 273 275 274 274 277 nan nan nan nan nan nan nan nan nan nan nan nan nan 279 272 268 269 271 272 269 265 263 261 260 259 260 261 263 266 268 267 272 273 276 275 279 279 281 282 283 283 283 281 282 nan nan nan nan
250 247 255 260 264 265 263 261 264 270 274 280 284 286 nan nan nan nan nan nan nan nan nan nan nan nan nan nan 267 261 261 263 264 264 264 264 261 259 260 260 261 262 263 265 267 270 270 272 273 276 277 279 282 284 284 287 287 285 nan nan nan nan
251 252 254 255 255 255 258 259 262 270 277 282 286 285 288 nan nan nan nan nan nan nan nan nan nan nan nan nan nan nan nan nan 260 261 261 260 259 259 nan nan nan nan nan nan 263 266 268 271 273 272 272 272 nan nan nan nan nan nan nan nan nan nan
255 253 250 249 250 251 251 nan nan 267 274 277 278 279 282 282 nan nan nan nan nan nan nan nan nan nan nan nan nan nan nan nan nan nan nan nan nan nan nan nan nan nan nan nan 261 263 264 265 267 nan nan nan nan nan nan nan nan nan nan nan nan nan
253 248 249 251 253 255 nan nan 265 273 279 281 282 284 283 nan nan nan nan nan nan nan nan 275 nan nan nan nan nan nan nan nan nan nan nan nan nan nan nan nan nan nan nan nan nan nan nan nan nan nan nan nan nan nan nan nan nan nan nan nan nan nan
252 254 258 262 266 271 274 283 286 281 274 270 279 283 281 nan nan nan nan nan nan nan nan nan nan nan nan nan nan nan nan nan nan nan nan nan nan nan nan nan nan nan nan nan nan nan nan nan nan nan nan nan nan nan nan nan nan nan nan nan nan nan
261 264 267 277 282 282 285 287 282 279 285 nan 289 nan nan nan nan nan nan nan nan nan nan nan nan nan nan nan nan nan nan nan nan nan nan nan nan nan nan nan nan nan nan nan nan nan nan nan nan nan nan nan nan nan nan nan nan nan nan nan nan nan
264 274 292 296 283 268 269 266 280 287 289 293 nan 297 289 nan nan nan nan nan nan nan nan nan nan nan nan nan nan nan nan nan nan nan nan nan nan nan nan nan nan nan nan nan nan nan nan nan nan nan nan nan nan nan nan nan nan nan nan nan nan nan